DateTimeUTC,F1_A11,F1_S11,BsB_S11,BsG_S11,BsR_S11,BbsB_S11,BbsG_S11,BbsR_S11,BaB_A11,BaG_A11,BaR_A11,Tu_S11,T_S11,Uu_S11,U_S11,P_S11,T1_A11
2021-03-02T10:00:00Z,00000200,21000000,,,,,,,0000.10,-000.21,-000.04,15.5,23.1,,00.0,0650.1,30.8
2021-03-02T10:01:00Z,00000200,21000000,,,,,,,0000.04,-000.20,-000.23,15.5,23.1,,00.0,0650.1,30.8
2021-03-02T10:02:00Z,00000200,21000000,,,,,,,0000.40,0000.64,0000.15,15.5,23.2,,00.0,0650.1,30.8
2021-03-02T10:03:00Z,00000200,61000000,,,,,,,0000.49,0000.83,0000.74,15.5,23.2,,00.0,0650.1,30.8
2021-03-02T10:04:00Z,00000200,41000000,0001.06,0000.58,0000.11,0000.76,0000.05,-000.14,0000.13,-000.03,-000.28,15.6,23.0,,00.0,0651.1,30.8
2021-03-02T10:05:00Z,00000200,01000000,0001.73,0000.64,0000.32,0000.06,0000.27,0000.07,0000.50,0000.29,0000.56,15.7,22.9,,00.0,0651.2,30.8
2021-03-02T10:06:00Z,00000200,01000000,0000.74,0000.64,0000.27,0000.70,-000.12,-000.13,-000.25,-000.08,-000.14,15.6,22.8,,00.0,0651.2,30.8
2021-03-02T10:07:00Z,00000200,01000000,0000.91,0000.97,0000.34,0000.51,0000.04,0000.06,0000.39,0000.62,0000.23,15.6,22.8,,00.0,0651.2,30.8
2021-03-02T10:08:00Z,00000200,01000000,0000.80,0000.71,0000.55,0000.27,0000.30,0000.16,0000.31,0000.09,0000.17,15.5,22.8,,00.0,0651.2,30.8
2021-03-02T10:09:00Z,00000200,01000000,0000.54,0000.72,0000.28,0000.25,0000.04,-000.06,0000.59,0000.38,0000.34,15.4,22.7,,00.0,0651.2,30.8
2021-03-02T10:10:00Z,00000200,01000000,0000.79,0000.74,0000.20,0000.67,0000.21,0000.11,0000.47,0000.56,0000.39,15.3,22.7,,00.0,0651.2,30.8
2021-03-02T10:11:00Z,00000200,01000000,0000.94,0000.48,0000.38,0000.32,0000.10,-000.12,-000.02,0000.04,0000.02,15.3,22.6,,00.0,0651.3,30.8
2021-03-02T10:12:00Z,00000200,01000000,0001.15,0000.67,0000.37,0000.21,0000.23,-000.33,0000.43,-000.18,0000.39,15.2,22.6,,00.0,0651.3,30.8
2021-03-02T10:13:00Z,00000200,01000000,0000.75,0000.51,0000.41,0000.34,0000.04,-000.02,0000.24,0000.38,-000.27,15.2,22.5,,00.0,0651.4,30.8
2021-03-02T10:14:00Z,00000200,01000000,0000.89,0000.84,0000.19,0000.23,-000.01,-000.23,-000.09,0000.04,0000.11,15.1,22.5,,00.0,0651.4,30.8
2021-03-02T10:15:00Z,00000200,01000000,0001.60,0000.73,0000.40,0000.13,0000.30,0000.08,0000.37,-000.28,-000.07,15.1,22.5,,00.0,0651.4,30.8
2021-03-02T10:16:00Z,00000200,01000000,0001.06,0000.67,0000.38,0000.30,0000.31,-000.13,0000.09,0000.64,0000.22,15.2,22.5,,00.0,0651.4,30.8
2021-03-02T10:17:00Z,00000200,01000000,0002.11,0000.81,0000.19,0000.41,0000.19,-000.10,0000.37,0000.02,0000.22,15.2,22.5,,00.0,0651.4,30.8
2021-03-02T10:18:00Z,00000200,01000000,0001.28,0001.05,0000.17,0000.35,0000.19,0000.03,0000.23,0000.19,0000.43,15.3,22.5,,00.0,0651.5,30.8
2021-03-02T10:19:00Z,00000200,01000000,0001.30,0000.79,0000.22,0000.62,-000.01,0000.27,0000.18,0000.27,-000.09,15.3,22.5,,00.0,0651.6,30.8
2021-03-02T10:20:00Z,00000200,01000000,0000.65,0000.83,0000.36,0000.49,0000.19,-000.04,0000.38,0000.03,0000.26,15.3,22.5,,00.0,0651.6,30.8
2021-03-02T10:21:00Z,00000200,01000000,0001.53,0000.64,0000.38,0000.26,0000.14,0000.15,0000.17,0000.36,0000.23,15.4,22.6,,00.0,0651.7,30.8
2021-03-02T10:22:00Z,00000200,01000000,0000.89,0000.69,0000.34,0000.32,0000.17,0000.03,0000.66,0000.17,0000.24,15.4,22.6,,00.0,0651.7,30.8
2021-03-02T10:23:00Z,00000200,01000000,0001.20,0000.64,0000.40,0000.63,0000.07,0000.18,-000.18,0000.32,-000.12,15.4,22.6,,00.0,0651.7,30.8
2021-03-02T10:24:00Z,00000200,01000000,0000.49,0000.56,0000.50,0000.47,0000.41,-000.09,0000.69,0000.03,0000.42,15.5,22.6,,00.0,0651.6,30.8
2021-03-02T10:25:00Z,00000200,01000000,0000.78,0000.81,0000.29,0000.23,-000.11,0000.11,0000.33,0000.52,0000.34,15.5,22.6,,00.0,0651.6,30.8
2021-03-02T10:26:00Z,00000200,01000000,0001.86,0000.70,0000.26,0000.26,0000.10,-000.01,0000.42,0000.70,0000.23,15.5,22.6,,00.0,0651.6,30.8
2021-03-02T10:27:00Z,00000200,01000000,0000.51,0000.58,0000.15,0000.02,0000.14,0000.01,0000.33,0000.20,0000.32,15.6,22.6,,00.0,0651.5,30.8
2021-03-02T10:28:00Z,00000200,01000000,0000.70,0000.69,0000.39,0000.68,-000.10,-000.36,0000.57,0000.74,0000.36,15.6,22.6,,00.0,0651.5,30.8
2021-03-02T10:29:00Z,00000200,01000000,0001.49,0000.62,0000.11,0000.57,0000.05,-000.10,0000.24,0000.09,0000.24,15.6,22.7,,00.0,0651.5,30.8
2021-03-02T10:30:00Z,00000200,01000000,0001.14,0000.52,0000.04,0000.04,0000.09,-000.14,0000.55,0000.41,0000.16,15.7,22.7,,00.0,0651.6,30.8
2021-03-02T10:31:00Z,00000200,01000000,0000.71,0000.66,0000.30,0000.24,0000.19,0000.08,0000.17,0000.20,0000.22,15.7,22.7,,00.0,0651.6,30.8
2021-03-02T10:32:00Z,00000200,01000000,0000.81,0000.68,0000.22,-000.00,0000.10,0000.03,0000.21,0000.15,0000.25,15.7,22.7,,00.0,0651.6,30.8
2021-03-02T10:33:00Z,00000200,01000000,0001.36,0000.72,0000.27,0000.19,0000.00,0000.04,0000.27,0000.35,0000.27,15.8,22.7,,00.0,0651.6,30.8
2021-03-02T10:34:00Z,00000200,01000000,0001.18,0000.63,0000.47,0000.10,0000.19,0000.07,0000.42,0000.39,0000.14,15.8,22.8,,00.0,0651.6,30.8
2021-03-02T10:35:00Z,00000200,01000000,0001.18,0000.72,0000.16,0000.05,0000.06,-000.09,0000.21,0000.51,0000.43,15.8,22.8,,00.0,0651.6,30.8
2021-03-02T10:36:00Z,00000200,01000000,0000.28,0000.54,0000.49,0000.42,0000.03,0000.08,0000.95,0000.56,0000.30,15.9,22.8,,00.0,0651.6,30.9
2021-03-02T10:37:00Z,00000200,01000000,0001.52,0000.74,0000.23,0000.29,-000.01,-000.08,0000.50,0000.39,0000.35,15.9,22.8,,00.0,0651.6,30.9
2021-03-02T10:38:00Z,00000200,01000000,0000.73,0000.51,0000.56,0000.25,0000.17,0000.35,0000.24,0000.75,0000.22,15.9,22.9,,00.0,0651.6,30.9
2021-03-02T10:39:00Z,00000200,01000000,0001.12,0000.71,0000.21,0000.13,0000.10,0000.00,0000.38,0000.36,0000.20,16.0,22.9,,00.0,0651.7,30.9
2021-03-02T10:40:00Z,00000200,01000000,0001.10,0000.72,0000.34,0000.27,-000.03,0000.10,0000.28,0000.48,0000.19,15.9,22.9,,00.0,0651.7,30.9
2021-03-02T10:41:00Z,00000200,01000000,0000.72,0000.66,0000.32,0000.48,0000.26,-000.14,0000.22,0000.09,0000.24,15.9,22.8,,00.0,0651.8,30.9
2021-03-02T10:42:00Z,00000200,01000000,0000.81,0000.72,0000.18,0000.31,0000.19,-000.23,0000.18,0000.10,0000.28,15.8,22.8,,00.0,0651.8,30.8
2021-03-02T10:43:00Z,00000200,01000000,0001.01,0000.56,0000.33,0000.24,-000.02,-000.06,0000.46,0000.23,0000.34,15.7,22.8,,00.0,0651.8,30.8
2021-03-02T10:44:00Z,00000200,01000000,0001.18,0000.62,0000.31,0000.40,0000.15,0000.11,0000.04,0000.34,-000.04,15.6,22.7,,00.0,0651.7,30.8
2021-03-02T10:45:00Z,00000200,01000000,0000.63,0000.54,0000.47,0000.18,-000.03,0000.10,0000.86,0000.44,0000.60,15.6,22.7,,00.0,0651.7,30.8
2021-03-02T10:46:00Z,00000200,01000000,0001.16,0000.95,0000.23,0000.23,0000.23,-000.07,0000.34,-000.04,0000.02,15.6,22.7,,00.0,0651.6,30.8
2021-03-02T10:47:00Z,00000200,01000000,0001.20,0000.85,0000.30,-000.06,0000.14,0000.08,0000.30,0000.39,0000.43,15.7,22.7,,00.0,0651.6,30.8
2021-03-02T10:48:00Z,00000200,01000000,0001.22,0000.71,0000.24,0000.46,0000.12,0000.13,0000.47,0000.13,-000.10,15.7,22.7,,00.0,0651.7,30.8
2021-03-02T10:49:00Z,00000200,01000000,0001.24,0000.59,0000.38,0000.66,0000.01,0000.06,0000.01,0000.14,0000.11,15.7,22.7,,00.0,0651.7,30.8
2021-03-02T10:50:00Z,00000200,01000000,0001.69,0000.59,0000.16,0000.21,0000.01,0000.07,0000.20,0000.35,-000.03,15.8,22.8,,00.0,0651.7,30.8
2021-03-02T10:51:00Z,00000200,01000000,0000.91,0000.78,0000.11,0000.26,0000.00,0000.01,0000.77,0000.39,0000.46,15.8,22.8,,00.0,0651.7,30.8
2021-03-02T10:52:00Z,00000200,01000000,0000.64,0000.83,0000.22,0000.54,0000.05,-000.08,0000.08,0000.48,0000.00,15.8,22.8,,00.0,0651.7,30.8
2021-03-02T10:53:00Z,00000200,01000000,0000.44,0000.60,0000.23,0000.27,0000.25,-000.09,0000.47,-000.12,0000.48,15.8,22.8,,00.0,0651.8,30.8
2021-03-02T10:54:00Z,00000200,01000000,0001.27,0000.66,0000.47,-000.15,0000.20,-000.03,0000.30,0000.72,0000.33,15.9,22.8,,00.0,0651.8,30.8
2021-03-02T10:55:00Z,00000200,01000000,0000.85,0000.49,0000.21,0000.55,-000.01,-000.07,0000.09,0000.10,0000.12,15.9,22.8,,00.0,0651.8,30.8
2021-03-02T10:56:00Z,00000200,01000000,0000.61,0000.82,0000.22,0000.66,-000.33,0000.26,0000.27,0000.37,0000.26,15.9,22.8,,00.0,0651.8,30.8
2021-03-02T10:57:00Z,00000200,41000000,,,,,,,0000.19,-000.13,0000.07,16.0,22.8,,00.0,0651.7,30.8
2021-03-02T10:58:00Z,00000200,61000000,,,,,,,-000.05,0000.29,-000.03,15.6,23.0,,00.0,0650.9,30.8
2021-03-02T10:59:00Z,00000200,21000000,,,,,,,-000.07,-000.27,-000.19,15.5,23.1,,00.0,0650.8,30.8
